CZ-6A DEB, 55891

Orbit data source: Space-Track

CZ-6A DEB, 55891 is space debris in SSO originally from a launch on Fri, 11 Nov 2022 UTC launched from the Taiyaun Space Center, China (TSC). Debris objects in space refer to the collection of defunct objects orbiting the Earth. Examples of debris include non-operational satellites, rocket bodies, and fragments generated from explosions, collisions, or faulty payload assembly.

Loading next visibility...
Identifier
55891, 2022-151AAP
Orbit
SSO
Country
Flag of CNCN / PRC
Related business
Manufacturer
SAST
Mission
Spacecraft
Bus & Motor
Unknown
Mass
Unknown
Launch date (UTC)
2022-11-11 (3 years ago)
Launch vehicle
Unknown
Launch site
Taiyaun Space Center, China (TSC)
Object type
Payload
Rocket body
Debris
Shape & HBR
Unknown shape, 0.1 m
Radar Cross Section
Small (<0.1 m²)

Expand to show TLE details & history
Last TLE update: 1 day ago

TLE from 1 day ago
0 CZ-6A DEB
1 55891U 22151AAP 25348.92614583  .00000703  00000-0  42515-3 0  9999
2 55891  98.8393 343.2164 0060339 163.7195 196.5931 14.08823212153493
Epoch: 2025-12-14T22:13Z
TLE epoch observation values (Epoch: 2025-12-14T22:13:38.999Z)
Latitude
-0.00007°
Longitude
-74.02814°
Altitude
908.201 km
Speed
7.376 km/s
True Right ascension
22h 52m 51s
True Declination
0° 00' 00"
Sunlit
Object was in daylight at epoch
Visualization orbit readout
Latitude
Unknown
Longitude
Unknown
Altitude
Unknown
Speed
Unknown
Apparent Right ascension
Unknown
Apparent Declination
Unknown
Sunlit
N/A
Visualization observer readout
Local Sidereal Time
00:26:44
Azimuth
Unknown
Elevation
Unknown
Doppler factor
Unknown
Orbital elements
Apogee altitude
904.259 km
Perigee altitude
816.903 km
Semi-major axis
7,238.718 km
Eccentricity
0.00603
Inclination
98.8393°
RAAN
343.2164°
Arg. of periapsis
163.7195°
True anomaly
196.39706°
Mean anomaly
196.5931°
Eccentric anomaly
196.49494°
Mean motion
3.52412 °/min
Orbital period
102.15 mins
BSTAR
0.00042515
Loading maneuver chart data...
Computing Atmospheric mass density...
Loading historical data...
Loading historical data...
Loading historical data...
Loading historical data...
Loading historical data...
Loading historical data...
Loading historical data...

Documentation

Showing up to 5 results
|